Location: Qazi Observatory
(41.6337°N, 88.1517°W)
Time: 03:36:05
(UTC-05:00)

Amateur Radio Satellites - All Passes

Search period start: 02 August 2014 03:06
Search period end: 03 August 2014 03:06
Location: Qazi Observatory, 41.6337°N, 88.1517°W

Satellite Date Start Highest point End Downlink Frequencies (MHz)
Time Altitude Azimuth
OPAL 02 Aug 03:20:44 03:25:12 36° 66° (ENE) 03:29:43 ?
Gurwin Techsat 1B 02 Aug 03:30:30 03:35:42 52° 100° (E) 03:40:52 435.225 FM
Oscar 16 02 Aug 03:32:45 03:37:11 30° 294° (WNW) 03:41:36 437.025 USB, Beacon 2401.1428
AO-7 02 Aug 03:34:36 03:38:10 13° 87° (E) 03:41:43 29.400 - 29.500 MHz
KITSAT 1 02 Aug 03:40:48 03:43:06 11° 97° (E) 03:45:24 435.175 FM
JAS-1B 02 Aug 03:43:11 03:52:28 86° 105° (ESE) 04:00:12 435.800 - 435.900 CW/SSB
ITAMSAT 1 02 Aug 04:02:43 04:07:23 35° 292° (WNW) 04:12:01 435.822 SSB
ISS 02 Aug 04:18:57 04:22:19 72° 34° (NE) 04:25:40 145.800 FM
Uribyol 2 02 Aug 04:21:30 04:25:30 23° 296° (WNW) 04:29:30 436.500 FM
AO-27 02 Aug 04:23:38 04:27:39 23° 296° (WNW) 04:31:39 436.795 MHz FM
AO-Echo 02 Aug 04:24:47 04:28:23 20° 297° (WNW) 04:31:54 ?
TMSAT-1 02 Aug 04:43:09 04:48:13 47° 290° (WNW) 04:53:16 436.925 FM
Uosat F 02 Aug 04:45:58 04:50:43 42° 99° (E) 04:55:26 435.120 FM
PANSAT 02 Aug 04:49:30 04:50:52 12° 182° (S) 04:52:14 not established
OPAL 02 Aug 05:00:01 05:04:09 26° 263° (W) 05:08:18 ?
MaSat-1 02 Aug 05:03:05 05:07:45 31° 54° (NE) 05:12:12 437.345 MHz
Gurwin Techsat 1B 02 Aug 05:11:23 05:15:17 21° 297° (WNW) 05:19:10 435.225 FM
AO-7 02 Aug 05:23:56 05:32:18 74° 106° (ESE) 05:40:34 29.400 - 29.500 MHz
KITSAT 1 02 Aug 05:28:58 05:36:57 67° 116° (ESE) 05:44:58 435.175 FM
JAS-1B 02 Aug 05:34:49 05:41:40 24° 307° (NW) 05:47:52 435.800 - 435.900 CW/SSB
Hamsat 02 Aug 05:50:29 05:53:03 15° 91° (E) 05:55:37 145.90 MHz
STRAND 1 02 Aug 05:51:31 05:55:46 27° 66° (ENE) 06:00:01 ?
JAS-2 02 Aug 05:54:15 05:57:20 15° 88° (E) 06:00:18 435.800 - 435.900 CW/SSB, 435.910 FM
ISS 02 Aug 05:56:51 05:58:38 14° 230° (SW) 06:00:25 145.800 FM
Saudisat 1A 02 Aug 06:15:33 06:19:40 40° 116° (ESE) 06:23:49 436.775 MHz
Uosat F 02 Aug 06:25:19 06:29:15 24° 296° (WNW) 06:33:10 435.120 FM
MaSat-1 02 Aug 06:40:18 06:45:08 38° 253° (WSW) 06:49:37 437.345 MHz
PCSat 02 Aug 07:04:22 07:06:26 12° 36° (NE) 07:08:30 145.825 MHz
AO-7 02 Aug 07:17:43 07:24:20 27° 305° (NW) 07:30:55 29.400 - 29.500 MHz
Hamsat 02 Aug 07:25:06 07:29:16 47° 287° (WNW) 07:33:26 145.90 MHz
KITSAT 1 02 Aug 07:25:45 07:32:55 33° 317° (NW) 07:40:07 435.175 FM
STRAND 1 02 Aug 07:30:00 07:34:46 38° 262° (W) 07:39:33 ?
JAS-2 02 Aug 07:37:27 07:43:11 66° 288° (WNW) 07:48:24 435.800 - 435.900 CW/SSB, 435.910 FM
SO-67 02 Aug 07:53:29 07:56:55 56° 100° (E) 08:00:19 435.3500 MHz FM
Saudisat 1A 02 Aug 07:55:43 07:59:23 25° 314° (NW) 08:03:05 436.775 MHz
Sapphire 02 Aug 08:13:02 08:17:51 31° 50° (NE) 08:22:39 437.095 MHz 1200 baud AX-25 AFSK
PCSat 02 Aug 08:45:41 08:51:03 58° 57° (ENE) 08:56:23 145.825 MHz
HO-68 02 Aug 08:49:20 08:54:36 22° 92° (E) 08:59:50 435.675 MHz FM
KITSAT 1 02 Aug 09:27:53 09:31:21 13° 345° (NNW) 09:34:50 435.175 FM
Sapphire 02 Aug 09:56:18 10:01:21 40° 248° (WSW) 10:06:23 437.095 MHz 1200 baud AX-25 AFSK
UKube-1 02 Aug 10:00:50 10:05:05 50° 100° (E) 10:09:17 145.840 MHz, 145.915 MHz
SO-50 02 Aug 10:20:39 10:22:40 13° 108° (ESE) 10:24:42 436.795 FM
PCSat 02 Aug 10:30:09 10:33:59 20° 254° (WSW) 10:37:48 145.825 MHz
HO-68 02 Aug 10:35:46 10:42:53 70° 290° (WNW) 10:49:57 435.675 MHz FM
Oscar 11 02 Aug 10:40:44 10:45:06 77° 102° (ESE) 10:49:26 145.825 FM, Beacon 2401.500 USB
FUNcube-1 02 Aug 11:15:25 11:19:36 68° 101° (ESE) 11:23:51 145.950 - 145.970 MHz USB
KITSAT 1 02 Aug 11:27:26 11:31:09 13° 17° (NNE) 11:34:50 435.175 FM
UKube-1 02 Aug 11:38:15 11:40:52 16° 297° (WNW) 11:43:29 145.840 MHz, 145.915 MHz
RS-15 02 Aug 11:47:38 11:57:15 36° 106° (ESE) 12:06:40 29.354 - 29.394 USB, Beacon 29.352 USB
SO-50 02 Aug 11:58:10 12:02:37 69° 305° (NW) 12:07:10 436.795 FM
Oscar 11 02 Aug 12:19:35 12:20:39 11° 299° (WNW) 12:21:43 145.825 FM, Beacon 2401.500 USB
HO-68 02 Aug 12:25:51 12:29:20 14° 309° (NW) 12:32:49 435.675 MHz FM
JAS-1B 02 Aug 12:38:32 12:45:00 21° 51° (NE) 12:51:38 435.800 - 435.900 CW/SSB
Oscar 19 02 Aug 12:41:58 12:46:12 27° 66° (ENE) 12:50:28 437.125 CW, 437.150 USB
FUNcube-1 02 Aug 12:54:08 12:55:29 11° 298° (WNW) 12:56:49 145.950 - 145.970 MHz USB
Oscar 16 02 Aug 13:10:22 13:15:18 51° 71° (ENE) 13:20:16 437.025 USB, Beacon 2401.1428
Gurwin Techsat 1B 02 Aug 13:16:10 13:17:58 12° 57° (ENE) 13:19:47 435.225 FM
KITSAT 1 02 Aug 13:22:08 13:29:27 36° 44° (NE) 13:36:42 435.175 FM
UOSAT-12 02 Aug 13:31:50 13:36:25 80° 121° (ESE) 13:41:08 437.025 FM, 437.400 FM
ITAMSAT 1 02 Aug 13:41:28 13:46:24 45° 70° (ENE) 13:51:21 435.822 SSB
SO-50 02 Aug 13:42:14 13:44:04 12° 325° (NW) 13:45:55 436.795 FM
AO-Echo 02 Aug 13:57:36 14:02:51 66° 73° (ENE) 14:08:07 ?
RS-15 02 Aug 13:57:50 14:08:51 67° 308° (NW) 14:19:46 29.354 - 29.394 USB, Beacon 29.352 USB
Uribyol 2 02 Aug 13:59:23 14:04:33 70° 73° (ENE) 14:09:43 436.500 FM
AO-27 02 Aug 14:01:43 14:06:54 71° 73° (ENE) 14:12:06 436.795 MHz FM
Oscar 19 02 Aug 14:20:41 14:25:23 37° 263° (W) 14:30:08 437.125 CW, 437.150 USB
JAS-1B 02 Aug 14:24:38 14:33:47 75° 71° (ENE) 14:43:42 435.800 - 435.900 CW/SSB
TMSAT-1 02 Aug 14:24:49 14:29:34 35° 68° (ENE) 14:34:21 436.925 FM
AO-7 02 Aug 14:33:08 14:39:19 24° 52° (NE) 14:45:29 29.400 - 29.500 MHz
Saudisat 1A 02 Aug 14:42:01 14:46:06 36° 49° (NE) 14:50:09 436.775 MHz
Oscar 16 02 Aug 14:51:22 14:54:57 19° 268° (W) 14:58:34 437.025 USB, Beacon 2401.1428
Gurwin Techsat 1B 02 Aug 14:51:47 14:57:05 83° 75° (ENE) 15:02:26 435.225 FM
UOSAT-12 02 Aug 15:14:08 15:17:10 17° 321° (NW) 15:20:14 437.025 FM, 437.400 FM
KITSAT 1 02 Aug 15:17:22 15:25:17 61° 246° (WSW) 15:33:09 435.175 FM
ITAMSAT 1 02 Aug 15:22:04 15:26:05 22° 266° (W) 15:30:08 435.822 SSB
AO-Echo 02 Aug 15:38:52 15:42:03 16° 270° (W) 15:45:14 ?
Uribyol 2 02 Aug 15:41:50 15:44:31 14° 270° (W) 15:47:12 436.500 FM
AO-27 02 Aug 15:44:14 15:46:55 14° 270° (W) 15:49:37 436.795 MHz FM
Uosat F 02 Aug 15:59:18 16:04:15 60° 72° (ENE) 16:09:13 435.120 FM
TMSAT-1 02 Aug 16:04:54 16:09:30 30° 264° (W) 16:14:08 436.925 FM
JAS-2 02 Aug 16:08:41 16:10:51 12° 53° (NE) 16:12:58 435.800 - 435.900 CW/SSB, 435.910 FM
RS-15 02 Aug 16:15:04 16:23:47 26° 337° (NNW) 16:32:32 29.354 - 29.394 USB, Beacon 29.352 USB
JAS-1B 02 Aug 16:17:23 16:25:00 29° 271° (W) 16:33:12 435.800 - 435.900 CW/SSB
Saudisat 1A 02 Aug 16:21:54 16:25:32 26° 247° (WSW) 16:29:09 436.775 MHz
AO-7 02 Aug 16:22:45 16:31:08 85° 252° (WSW) 16:39:33 29.400 - 29.500 MHz
Gurwin Techsat 1B 02 Aug 16:35:45 16:37:42 12° 272° (W) 16:39:39 435.225 FM
Hamsat 02 Aug 16:45:37 16:47:08 12° 62° (ENE) 16:48:39 145.90 MHz
OPAL 02 Aug 17:08:21 17:13:28 76° 105° (ESE) 17:18:38 ?
Uosat F 02 Aug 17:40:22 17:43:25 16° 269° (W) 17:46:29 435.120 FM
JAS-2 02 Aug 17:47:10 17:54:39 58° 71° (ENE) 18:01:31 435.800 - 435.900 CW/SSB, 435.910 FM
Hamsat 02 Aug 18:18:23 18:22:32 65° 259° (W) 18:26:44 145.90 MHz
AO-7 02 Aug 18:20:01 18:25:00 17° 271° (W) 18:30:01 29.400 - 29.500 MHz
SO-67 02 Aug 18:27:33 18:30:06 20° 69° (ENE) 18:32:40 435.3500 MHz FM
RS-15 02 Aug 18:33:16 18:41:22 23° 14° (NNE) 18:49:34 29.354 - 29.394 USB, Beacon 29.352 USB
OPAL 02 Aug 18:48:55 18:51:44 15° 302° (WNW) 18:54:35 ?
SO-50 02 Aug 18:49:54 18:53:11 18° 41° (NE) 18:56:29 436.795 FM
HO-68 02 Aug 19:19:36 19:24:13 19° 54° (NE) 19:28:51 435.675 MHz FM
JAS-2 02 Aug 19:33:23 19:39:52 29° 266° (W) 19:45:59 435.800 - 435.900 CW/SSB, 435.910 FM
STRAND 1 02 Aug 19:39:57 19:45:03 72° 103° (ESE) 19:50:07 ?
SO-67 02 Aug 20:00:14 20:03:03 23° 265° (W) 20:05:53 435.3500 MHz FM
UOSAT-12 02 Aug 20:22:45 20:25:04 13° 35° (NE) 20:27:23 437.025 FM, 437.400 FM
SO-50 02 Aug 20:29:30 20:34:16 75° 239° (WSW) 20:39:05 436.795 FM
MaSat-1 02 Aug 20:30:29 20:34:41 82° 296° (WNW) 20:39:34 437.345 MHz
RS-15 02 Aug 20:46:37 20:57:16 50° 45° (NE) 21:08:12 29.354 - 29.394 USB, Beacon 29.352 USB
UKube-1 02 Aug 20:56:29 21:00:38 45° 71° (ENE) 21:04:49 145.840 MHz, 145.915 MHz
ISS 02 Aug 21:02:02 21:04:33 20° 133° (SE) 21:07:06 145.800 FM
HO-68 02 Aug 21:03:48 21:10:59 89° 73° (ENE) 21:18:11 435.675 MHz FM
STRAND 1 02 Aug 21:20:47 21:23:38 15° 300° (WNW) 21:26:29 ?
Oscar 11 02 Aug 21:35:50 21:40:04 61° 74° (ENE) 21:44:19 145.825 FM, Beacon 2401.500 USB
UOSAT-12 02 Aug 22:01:20 22:06:05 72° 55° (NE) 22:10:45 437.025 FM, 437.400 FM
MaSat-1 02 Aug 22:10:53 22:12:57 13° 318° (NW) 22:15:05 437.345 MHz
FUNcube-1 02 Aug 22:12:05 22:16:15 55° 74° (ENE) 22:20:22 145.950 - 145.970 MHz USB
UKube-1 02 Aug 22:34:19 22:37:04 16° 267° (W) 22:39:50 145.840 MHz, 145.915 MHz
ISS 02 Aug 22:37:48 22:41:02 49° 330° (NNW) 22:44:19 145.800 FM
HO-68 02 Aug 22:55:27 22:59:33 16° 271° (W) 23:03:40 435.675 MHz FM
Sapphire 02 Aug 22:55:48 23:00:08 25° 108° (ESE) 23:04:29 437.095 MHz 1200 baud AX-25 AFSK
RS-15 02 Aug 22:59:11 23:09:44 53° 248° (WSW) 23:20:41 29.354 - 29.394 USB, Beacon 29.352 USB
Oscar 11 02 Aug 23:15:05 23:16:39 12° 270° (W) 23:18:13 145.825 FM, Beacon 2401.500 USB
PCSat 02 Aug 23:27:33 23:32:45 51° 114° (ESE) 23:38:00 145.825 MHz
UOSAT-12 02 Aug 23:43:21 23:45:37 13° 252° (WSW) 23:47:52 437.025 FM, 437.400 FM
FUNcube-1 02 Aug 23:51:09 23:52:58 12° 269° (W) 23:54:47 145.950 - 145.970 MHz USB
ISS 03 Aug 00:16:03 00:18:21 17° 349° (N) 00:20:39 145.800 FM
Sapphire 03 Aug 00:38:04 00:43:16 47° 305° (NW) 00:48:30 437.095 MHz 1200 baud AX-25 AFSK
PCSat 03 Aug 01:11:58 01:16:27 26° 313° (NW) 01:20:58 145.825 MHz
Oscar 16 03 Aug 01:22:52 01:26:20 18° 92° (E) 01:29:48 437.025 USB, Beacon 2401.1428
ISS 03 Aug 01:53:48 01:56:02 16° 10° (N) 01:58:17 145.800 FM
ITAMSAT 1 03 Aug 01:55:30 01:58:31 15° 91° (E) 02:01:30 435.822 SSB
AO-Echo 03 Aug 02:06:01 02:09:38 20° 92° (E) 02:13:10 ?
Uribyol 2 03 Aug 02:12:37 02:16:47 24° 94° (E) 02:20:54 436.500 FM
JAS-1B 03 Aug 02:13:09 02:19:56 24° 86° (E) 02:25:55 435.800 - 435.900 CW/SSB
AO-27 03 Aug 02:15:16 02:19:28 25° 94° (E) 02:23:38 436.795 MHz FM
Sapphire 03 Aug 02:28:03 02:28:06 10° 327° (NNW) 02:28:10 437.095 MHz 1200 baud AX-25 AFSK
Oscar 19 03 Aug 02:31:27 02:36:40 77° 103° (ESE) 02:41:51 437.125 CW, 437.150 USB
TMSAT-1 03 Aug 02:42:02 02:44:27 13° 89° (E) 02:46:51 436.925 FM
OPAL 03 Aug 02:47:05 02:50:21 18° 60° (ENE) 02:53:37 ?
